owner,sensor,date,latitude,longitude,vertical_datum,direction_of_sea_water_velocity,sea_water_speed,upward_sea_water_velocity,qcFlag 
TABS,ioos:station:wmo:42043:1,2014-02-01T00:00:00Z,28.9818,-94.9186,2.0,243.5301054,18.77852497,-99999.0,'11111222,11111222,99999999' 
TABS,ioos:station:wmo:42043:1,2014-02-01T00:30:00Z,28.9818,-94.9186,2.0,234.938724,21.79486178,-99999.0,'11111222,11111222,99999999' 
TABS,ioos:station:wmo:42043:1,2014-02-01T01:00:00Z,28.9818,-94.9186,2.0,239.7220123,23.34434621,-99999.0,'11111222,11111222,99999999' 
TABS,ioos:station:wmo:42043:1,2014-02-01T01:30:00Z,28.9818,-94.9186,2.0,259.6099814,36.87459017,-99999.0,'11111222,11111222,99999999' 
TABS,ioos:station:wmo:42043:1,2014-02-01T02:00:00Z,28.9818,-94.9186,2.0,257.5126822,35.61239812,-99999.0,'11111222,11111222,99999999' 
TABS,ioos:station:wmo:42043:1,2014-02-01T02:30:00Z,28.9818,-94.9186,2.0,256.3283039,31.98624704,-99999.0,'11111222,11111222,99999999' 
TABS,ioos:station:wmo:42043:1,2014-02-01T03:00:00Z,28.9818,-94.9186,2.0,259.2913304,31.37638921,-99999.0,'11111222,11111222,99999999' 
TABS,ioos:station:wmo:42043:1,2014-02-01T03:30:00Z,28.9818,-94.9186,2.0,262.4936732,37.12813758,-99999.0,'11111222,11111222,99999999' 
TABS,ioos:station:wmo:42043:1,2014-02-01T04:00:00Z,28.9818,-94.9186,2.0,262.6044099,36.82632211,-99999.0,'11111222,11111222,99999999' 
TABS,ioos:station:wmo:42043:1,2014-02-01T04:30:00Z,28.9818,-94.9186,2.0,266.1324046,35.88170007,-99999.0,'11111222,11111222,99999999' 
TABS,ioos:station:wmo:42043:1,2014-02-01T05:00:00Z,28.9818,-94.9186,2.0,268.76175,34.71810191,-99999.0,'11111222,11111222,99999999' 
TABS,ioos:station:wmo:42043:1,2014-02-01T05:30:00Z,28.9818,-94.9186,2.0,262.7060821,33.31959484,-99999.0,'11111222,11111222,99999999' 
TABS,ioos:station:wmo:42043:1,2014-02-01T06:00:00Z,28.9818,-94.9186,2.0,257.6469039,32.11345201,-99999.0,'11111222,11111222,99999999' 
TABS,ioos:station:wmo:42043:1,2014-02-01T06:30:00Z,28.9818,-94.9186,2.0,262.167698,30.16134115,-99999.0,'11111222,11111222,99999999' 
TABS,ioos:station:wmo:42043:1,2014-02-01T07:00:00Z,28.9818,-94.9186,2.0,257.4107494,27.94174297,-99999.0,'11111222,11111222,99999999' 
TABS,ioos:station:wmo:42043:1,2014-02-01T07:30:00Z,28.9818,-94.9186,2.0,257.736645,26.88339636,-99999.0,'11111222,11111222,99999999' 
TABS,ioos:station:wmo:42043:1,2014-02-01T08:00:00Z,28.9818,-94.9186,2.0,257.6178419,27.04914786,-99999.0,'11111222,11111222,99999999' 
TABS,ioos:station:wmo:42043:1,2014-02-01T08:30:00Z,28.9818,-94.9186,2.0,256.533283,28.0409308,-99999.0,'11111222,11111222,99999999' 
TABS,ioos:station:wmo:42043:1,2014-02-01T09:00:00Z,28.9818,-94.9186,2.0,250.724439,29.11189619,-99999.0,'11111222,11111222,99999999' 
TABS,ioos:station:wmo:42043:1,2014-02-01T09:30:00Z,28.9818,-94.9186,2.0,246.7558436,26.631579,-99999.0,'11111222,11111222,99999999' 
TABS,ioos:station:wmo:42043:1,2014-02-01T10:00:00Z,28.9818,-94.9186,2.0,239.4031917,28.62541703,-99999.0,'11111222,11111222,99999999' 
TABS,ioos:station:wmo:42043:1,2014-02-01T10:30:00Z,28.9818,-94.9186,2.0,234.7284307,28.74718943,-99999.0,'11111222,11111222,99999999' 
TABS,ioos:station:wmo:42043:1,2014-02-01T11:00:00Z,28.9818,-94.9186,2.0,227.5522075,27.94430174,-99999.0,'11111222,11111222,99999999' 
TABS,ioos:station:wmo:42043:1,2014-02-01T11:30:00Z,28.9818,-94.9186,2.0,228.8137502,32.52824619,-99999.0,'11111222,11111222,99999999' 
TABS,ioos:station:wmo:42043:1,2014-02-01T12:00:00Z,28.9818,-94.9186,2.0,218.1344474,28.63097623,-99999.0,'11111222,11111222,99999999' 
TABS,ioos:station:wmo:42043:1,2014-02-01T12:30:00Z,28.9818,-94.9186,2.0,214.2795586,33.68040677,-99999.0,'11111222,11111222,99999999' 
TABS,ioos:station:wmo:42043:1,2014-02-01T13:00:00Z,28.9818,-94.9186,2.0,212.381467,32.91894439,-99999.0,'11111222,11111222,99999999' 
TABS,ioos:station:wmo:42043:1,2014-02-01T13:30:00Z,28.9818,-94.9186,2.0,206.8341535,31.39026919,-99999.0,'11111222,11111222,99999999' 
TABS,ioos:station:wmo:42043:1,2014-02-01T14:00:00Z,28.9818,-94.9186,2.0,200.6788991,27.77978042,-99999.0,'11111222,11111222,99999999' 
TABS,ioos:station:wmo:42043:1,2014-02-01T14:30:00Z,28.9818,-94.9186,2.0,194.5784815,24.59178928,-99999.0,'11111222,11111222,99999999' 
TABS,ioos:station:wmo:42043:1,2014-02-01T15:00:00Z,28.9818,-94.9186,2.0,196.0315356,22.775781,-99999.0,'11111222,11111222,99999999' 
TABS,ioos:station:wmo:42043:1,2014-02-01T15:30:00Z,28.9818,-94.9186,2.0,200.6068182,15.76896002,-99999.0,'11111222,11111222,99999999' 
TABS,ioos:station:wmo:42043:1,2014-02-01T16:00:00Z,28.9818,-94.9186,2.0,220.9625535,16.6725223,-99999.0,'11111222,11111222,99999999' 
TABS,ioos:station:wmo:42043:1,2014-02-01T16:30:00Z,28.9818,-94.9186,2.0,225.8085103,18.03301971,-99999.0,'11111222,11111222,99999999' 
TABS,ioos:station:wmo:42043:1,2014-02-01T17:00:00Z,28.9818,-94.9186,2.0,247.1064357,17.73712491,-99999.0,'11111222,11111222,99999999' 
TABS,ioos:station:wmo:42043:1,2014-02-01T17:30:00Z,28.9818,-94.9186,2.0,254.7049272,17.77972441,-99999.0,'11111222,11111222,99999999' 
TABS,ioos:station:wmo:42043:1,2014-02-01T18:00:00Z,28.9818,-94.9186,2.0,252.0924587,18.53805815,-99999.0,'11111222,11111222,99999999' 
TABS,ioos:station:wmo:42043:1,2014-02-01T18:30:00Z,28.9818,-94.9186,2.0,260.0915651,18.59737616,-99999.0,'11111222,11111222,99999999' 
TABS,ioos:station:wmo:42043:1,2014-02-01T19:00:00Z,28.9818,-94.9186,2.0,260.4791463,16.20317253,-99999.0,'11111222,11111222,99999999' 
TABS,ioos:station:wmo:42043:1,2014-02-01T19:30:00Z,28.9818,-94.9186,2.0,247.7665012,19.71583374,-99999.0,'11111222,11111222,99999999' 
TABS,ioos:station:wmo:42043:1,2014-02-01T20:00:00Z,28.9818,-94.9186,2.0,239.4761067,20.53584671,-99999.0,'11111222,11111222,99999999' 
TABS,ioos:station:wmo:42043:1,2014-02-01T20:30:00Z,28.9818,-94.9186,2.0,252.3818982,25.27549406,-99999.0,'11111222,11111222,99999999' 
TABS,ioos:station:wmo:42043:1,2014-02-01T21:00:00Z,28.9818,-94.9186,2.0,242.2132823,26.85680547,-99999.0,'11111222,11111222,99999999' 
TABS,ioos:station:wmo:42043:1,2014-02-01T21:30:00Z,28.9818,-94.9186,2.0,255.9133487,36.11599369,-99999.0,'11111222,11111222,99999999' 
TABS,ioos:station:wmo:42043:1,2014-02-01T22:00:00Z,28.9818,-94.9186,2.0,254.6506967,44.46602411,-99999.0,'11111222,11111222,99999999' 
TABS,ioos:station:wmo:42043:1,2014-02-01T22:30:00Z,28.9818,-94.9186,2.0,254.0411966,42.30018676,-99999.0,'11111222,11111222,99999999' 
TABS,ioos:station:wmo:42043:1,2014-02-01T23:00:00Z,28.9818,-94.9186,2.0,247.7183768,44.12461671,-99999.0,'11111222,11111222,99999999' 
TABS,ioos:station:wmo:42043:1,2014-02-01T23:30:00Z,28.9818,-94.9186,2.0,245.3825957,46.57290629,-99999.0,'11111222,11111222,99999999' 
TABS,ioos:station:wmo:42043:1,2014-02-02T00:00:00Z,28.9818,-94.9186,2.0,238.5816071,47.15330317,-99999.0,'11111222,11111222,99999999' 
TABS,ioos:station:wmo:42043:1,2014-02-02T00:30:00Z,28.9818,-94.9186,2.0,231.1986308,48.78570795,-99999.0,'11111222,11111222,99999999' 
TABS,ioos:station:wmo:42043:1,2014-02-02T01:00:00Z,28.9818,-94.9186,2.0,230.6424851,50.55562976,-99999.0,'11111222,11111222,99999999' 
TABS,ioos:station:wmo:42043:1,2014-02-02T01:30:00Z,28.9818,-94.9186,2.0,225.9131681,50.11902732,-99999.0,'11111222,11111222,99999999' 
TABS,ioos:station:wmo:42043:1,2014-02-02T02:00:00Z,28.9818,-94.9186,2.0,225.7285972,47.24562731,-99999.0,'11111222,11111222,99999999' 
TABS,ioos:station:wmo:42043:1,2014-02-02T02:30:00Z,28.9818,-94.9186,2.0,224.1390045,43.30810548,-99999.0,'11111222,11111222,99999999' 
TABS,ioos:station:wmo:42043:1,2014-02-02T03:00:00Z,28.9818,-94.9186,2.0,233.9790769,37.2400913,-99999.0,'11111222,11111222,99999999' 
TABS,ioos:station:wmo:42043:1,2014-02-02T03:30:00Z,28.9818,-94.9186,2.0,232.8103898,34.44453513,-99999.0,'11111222,11111222,99999999' 
TABS,ioos:station:wmo:42043:1,2014-02-02T04:00:00Z,28.9818,-94.9186,2.0,238.986116,33.55714082,-99999.0,'11111222,11111222,99999999' 
TABS,ioos:station:wmo:42043:1,2014-02-02T04:30:00Z,28.9818,-94.9186,2.0,236.7723712,29.87435355,-99999.0,'11111222,11111222,99999999' 
TABS,ioos:station:wmo:42043:1,2014-02-02T05:00:00Z,28.9818,-94.9186,2.0,233.4950395,26.03852914,-99999.0,'11111222,11111222,99999999' 
TABS,ioos:station:wmo:42043:1,2014-02-02T05:30:00Z,28.9818,-94.9186,2.0,235.0455729,23.51114204,-99999.0,'11111222,11111222,99999999' 
TABS,ioos:station:wmo:42043:1,2014-02-02T06:00:00Z,28.9818,-94.9186,2.0,227.2312991,23.60698625,-99999.0,'11111222,11111222,99999999' 
TABS,ioos:station:wmo:42043:1,2014-02-02T06:30:00Z,28.9818,-94.9186,2.0,226.2414207,21.86180459,-99999.0,'11111222,11111222,99999999' 
TABS,ioos:station:wmo:42043:1,2014-02-02T07:00:00Z,28.9818,-94.9186,2.0,219.55258,22.64482281,-99999.0,'11111222,11111222,99999999' 
TABS,ioos:station:wmo:42043:1,2014-02-02T07:30:00Z,28.9818,-94.9186,2.0,213.2032028,16.9827589,-99999.0,'11111222,11111222,99999999' 
TABS,ioos:station:wmo:42043:1,2014-02-02T08:00:00Z,28.9818,-94.9186,2.0,201.4438726,21.14368227,-99999.0,'11111222,11111222,99999999' 
TABS,ioos:station:wmo:42043:1,2014-02-02T08:30:00Z,28.9818,-94.9186,2.0,210.1219882,20.9027869,-99999.0,'11111222,11111222,99999999' 
TABS,ioos:station:wmo:42043:1,2014-02-02T09:00:00Z,28.9818,-94.9186,2.0,219.9490699,18.87525629,-99999.0,'11111222,11111222,99999999' 
TABS,ioos:station:wmo:42043:1,2014-02-02T09:30:00Z,28.9818,-94.9186,2.0,233.8938141,20.39781361,-99999.0,'11111222,11111222,99999999' 
TABS,ioos:station:wmo:42043:1,2014-02-02T10:00:00Z,28.9818,-94.9186,2.0,237.3954382,23.12405674,-99999.0,'11111222,11111222,99999999' 
TABS,ioos:station:wmo:42043:1,2014-02-02T10:30:00Z,28.9818,-94.9186,2.0,230.1882004,24.86476221,-99999.0,'11111222,11111222,99999999' 
TABS,ioos:station:wmo:42043:1,2014-02-02T11:00:00Z,28.9818,-94.9186,2.0,232.477427,23.36351429,-99999.0,'11111222,11111222,99999999' 
TABS,ioos:station:wmo:42043:1,2014-02-02T11:30:00Z,28.9818,-94.9186,2.0,237.1217412,24.85029175,-99999.0,'11111222,11111222,99999999' 
TABS,ioos:station:wmo:42043:1,2014-02-02T12:00:00Z,28.9818,-94.9186,2.0,242.7349493,26.36967956,-99999.0,'11111222,11111222,99999999' 
TABS,ioos:station:wmo:42043:1,2014-02-02T12:30:00Z,28.9818,-94.9186,2.0,237.3993217,29.6041568,-99999.0,'11111222,11111222,99999999' 
TABS,ioos:station:wmo:42043:1,2014-02-02T13:00:00Z,28.9818,-94.9186,2.0,235.7166985,32.96759773,-99999.0,'11111222,11111222,99999999' 
TABS,ioos:station:wmo:42043:1,2014-02-02T13:30:00Z,28.9818,-94.9186,2.0,232.0304257,37.31886922,-99999.0,'11111222,11111222,99999999' 
TABS,ioos:station:wmo:42043:1,2014-02-02T14:00:00Z,28.9818,-94.9186,2.0,238.4885687,36.98364233,-99999.0,'11111222,11111222,99999999' 
TABS,ioos:station:wmo:42043:1,2014-02-02T14:30:00Z,28.9818,-94.9186,2.0,233.7525521,41.21643483,-99999.0,'11111222,11111222,99999999' 
TABS,ioos:station:wmo:42043:1,2014-02-02T15:00:00Z,28.9818,-94.9186,2.0,238.6591434,37.8179706,-99999.0,'11111222,11111222,99999999' 
TABS,ioos:station:wmo:42043:1,2014-02-02T15:30:00Z,28.9818,-94.9186,2.0,241.0617789,35.75407809,-99999.0,'11111222,11111222,99999999' 
TABS,ioos:station:wmo:42043:1,2014-02-02T16:00:00Z,28.9818,-94.9186,2.0,243.7823253,34.63285867,-99999.0,'11111222,11111222,99999999' 
TABS,ioos:station:wmo:42043:1,2014-02-03T00:00:00Z,28.9818,-94.9186,2.0,234.5709804,67.82945747,-99999.0,'11111222,11111222,99999999' 
TABS,ioos:station:wmo:42043:1,2014-02-03T00:30:00Z,28.9818,-94.9186,2.0,232.2682184,67.56963889,-99999.0,'11111222,11111222,99999999' 
TABS,ioos:station:wmo:42043:1,2014-02-03T01:00:00Z,28.9818,-94.9186,2.0,232.2562251,69.52808066,-99999.0,'11111222,11111222,99999999' 
TABS,ioos:station:wmo:42043:1,2014-02-03T01:30:00Z,28.9818,-94.9186,2.0,232.8479221,71.15086085,-99999.0,'11111222,11111222,99999999' 
TABS,ioos:station:wmo:42043:1,2014-02-03T02:00:00Z,28.9818,-94.9186,2.0,233.8779603,74.13032038,-99999.0,'11111222,11111222,99999999' 
TABS,ioos:station:wmo:42043:1,2014-02-03T02:30:00Z,28.9818,-94.9186,2.0,234.3567417,73.41283267,-99999.0,'11111222,11111222,99999999' 
TABS,ioos:station:wmo:42043:1,2014-02-03T03:00:00Z,28.9818,-94.9186,2.0,235.0887241,71.20361367,-99999.0,'11111222,11111222,99999999' 
TABS,ioos:station:wmo:42043:1,2014-02-03T03:30:00Z,28.9818,-94.9186,2.0,236.9157494,69.21104319,-99999.0,'11111222,11111222,99999999' 
TABS,ioos:station:wmo:42043:1,2014-02-03T04:00:00Z,28.9818,-94.9186,2.0,234.5568779,72.99664239,-99999.0,'11111222,11111222,99999999' 
TABS,ioos:station:wmo:42043:1,2014-02-03T04:30:00Z,28.9818,-94.9186,2.0,235.610986,65.7396334,-99999.0,'11111222,11111222,99999999' 
TABS,ioos:station:wmo:42043:1,2014-02-03T05:00:00Z,28.9818,-94.9186,2.0,237.1988083,65.05197922,-99999.0,'11111222,11111222,99999999' 
TABS,ioos:station:wmo:42043:1,2014-02-03T05:30:00Z,28.9818,-94.9186,2.0,232.4030387,63.54711166,-99999.0,'11111222,11111222,99999999' 
TABS,ioos:station:wmo:42043:1,2014-02-03T06:00:00Z,28.9818,-94.9186,2.0,236.5333161,58.95398629,-99999.0,'11111222,11111222,99999999' 
TABS,ioos:station:wmo:42043:1,2014-02-03T06:30:00Z,28.9818,-94.9186,2.0,234.6067745,57.96125775,-99999.0,'11111222,11111222,99999999' 
TABS,ioos:station:wmo:42043:1,2014-02-03T07:00:00Z,28.9818,-94.9186,2.0,237.8311895,53.99969074,-99999.0,'11111222,11111222,99999999' 
TABS,ioos:station:wmo:42043:1,2014-02-03T07:30:00Z,28.9818,-94.9186,2.0,237.895035,46.51277674,-99999.0,'11111222,11111222,99999999' 
TABS,ioos:station:wmo:42043:1,2014-02-03T08:00:00Z,28.9818,-94.9186,2.0,235.0382727,47.50235047,-99999.0,'11111222,11111222,99999999' 
TABS,ioos:station:wmo:42043:1,2014-02-03T08:30:00Z,28.9818,-94.9186,2.0,236.5158744,46.22069342,-99999.0,'11111222,11111222,99999999' 
TABS,ioos:station:wmo:42043:1,2014-02-03T09:00:00Z,28.9818,-94.9186,2.0,237.1257998,41.47082107,-99999.0,'11111222,11111222,99999999' 
TABS,ioos:station:wmo:42043:1,2014-02-03T09:30:00Z,28.9818,-94.9186,2.0,238.8952659,36.33379969,-99999.0,'11111222,11111222,99999999' 
TABS,ioos:station:wmo:42043:1,2014-02-03T10:00:00Z,28.9818,-94.9186,2.0,232.8581903,45.14850717,-99999.0,'11111222,11111222,99999999' 
TABS,ioos:station:wmo:42043:1,2014-02-03T10:30:00Z,28.9818,-94.9186,2.0,237.143934,39.42672317,-99999.0,'11111222,11111222,99999999' 
TABS,ioos:station:wmo:42043:1,2014-02-03T11:00:00Z,28.9818,-94.9186,2.0,235.4245088,39.85996488,-99999.0,'11111222,11111222,99999999' 
TABS,ioos:station:wmo:42043:1,2014-02-03T11:30:00Z,28.9818,-94.9186,2.0,233.7087343,38.19995026,-99999.0,'11111222,11111222,99999999' 
TABS,ioos:station:wmo:42043:1,2014-02-03T12:00:00Z,28.9818,-94.9186,2.0,229.8307331,44.41560649,-99999.0,'11111222,11111222,99999999' 
TABS,ioos:station:wmo:42043:1,2014-02-03T12:30:00Z,28.9818,-94.9186,2.0,231.2282561,42.49339949,-99999.0,'11111222,11111222,99999999' 
TABS,ioos:station:wmo:42043:1,2014-02-03T13:00:00Z,28.9818,-94.9186,2.0,227.7422325,42.70867008,-99999.0,'11111222,11111222,99999999' 
TABS,ioos:station:wmo:42043:1,2014-02-03T13:30:00Z,28.9818,-94.9186,2.0,228.6401555,46.88386183,-99999.0,'11111222,11111222,99999999' 
TABS,ioos:station:wmo:42043:1,2014-02-03T14:00:00Z,28.9818,-94.9186,2.0,229.6035758,46.33772761,-99999.0,'11111222,11111222,99999999' 
TABS,ioos:station:wmo:42043:1,2014-02-03T14:30:00Z,28.9818,-94.9186,2.0,232.2733208,44.28894783,-99999.0,'11111222,11111222,99999999' 
TABS,ioos:station:wmo:42043:1,2014-02-03T15:00:00Z,28.9818,-94.9186,2.0,229.2385188,42.76258294,-99999.0,'11111222,11111222,99999999' 
TABS,ioos:station:wmo:42043:1,2014-02-03T15:30:00Z,28.9818,-94.9186,2.0,227.9020484,40.49845676,-99999.0,'11111222,11111222,99999999' 
TABS,ioos:station:wmo:42043:1,2014-02-03T16:00:00Z,28.9818,-94.9186,2.0,229.8883405,39.82771899,-99999.0,'11111222,11111222,99999999' 
TABS,ioos:station:wmo:42043:1,2014-02-03T16:30:00Z,28.9818,-94.9186,2.0,240.3245009,44.84107046,-99999.0,'11111222,11111222,99999999' 
TABS,ioos:station:wmo:42043:1,2014-02-03T17:00:00Z,28.9818,-94.9186,2.0,237.2039692,50.10662631,-99999.0,'11111222,11111222,99999999' 
TABS,ioos:station:wmo:42043:1,2014-02-03T17:30:00Z,28.9818,-94.9186,2.0,237.9626208,46.05373492,-99999.0,'11111222,11111222,99999999' 
TABS,ioos:station:wmo:42043:1,2014-02-03T18:00:00Z,28.9818,-94.9186,2.0,241.756227,50.08257581,-99999.0,'11111222,11111222,99999999' 
TABS,ioos:station:wmo:42043:1,2014-02-03T18:30:00Z,28.9818,-94.9186,2.0,245.9856488,41.79775712,-99999.0,'11111222,11111222,99999999' 
TABS,ioos:station:wmo:42043:1,2014-02-03T19:00:00Z,28.9818,-94.9186,2.0,239.3640081,42.52548648,-99999.0,'11111222,11111222,99999999' 
TABS,ioos:station:wmo:42043:1,2014-02-03T19:30:00Z,28.9818,-94.9186,2.0,245.3126578,43.12113751,-99999.0,'11111222,11111222,99999999' 
TABS,ioos:station:wmo:42043:1,2014-02-03T20:00:00Z,28.9818,-94.9186,2.0,241.5397949,43.4168746,-99999.0,'11111222,11111222,99999999' 
TABS,ioos:station:wmo:42043:1,2014-02-03T20:30:00Z,28.9818,-94.9186,2.0,238.8253856,37.34235397,-99999.0,'11111222,11111222,99999999' 
TABS,ioos:station:wmo:42043:1,2014-02-03T21:00:00Z,28.9818,-94.9186,2.0,236.2074592,40.45434958,-99999.0,'11111222,11111222,99999999' 
TABS,ioos:station:wmo:42043:1,2014-02-03T21:30:00Z,28.9818,-94.9186,2.0,241.4017414,32.77902531,-99999.0,'11111222,11111222,99999999' 
TABS,ioos:station:wmo:42043:1,2014-02-03T22:00:00Z,28.9818,-94.9186,2.0,251.6393581,29.11195287,-99999.0,'11111222,11111222,99999999' 
TABS,ioos:station:wmo:42043:1,2014-02-03T22:30:00Z,28.9818,-94.9186,2.0,244.7308915,28.86160772,-99999.0,'11111222,11111222,99999999' 
TABS,ioos:station:wmo:42043:1,2014-02-03T23:00:00Z,28.9818,-94.9186,2.0,242.9612228,30.31317205,-99999.0,'11111222,11111222,99999999' 
TABS,ioos:station:wmo:42043:1,2014-02-03T23:30:00Z,28.9818,-94.9186,2.0,242.1318182,28.32488658,-99999.0,'11111222,11111222,99999999' 
TABS,ioos:station:wmo:42043:1,2014-02-04T00:00:00Z,28.9818,-94.9186,2.0,243.127017,26.65878654,-99999.0,'11111222,11111222,99999999' 
TABS,ioos:station:wmo:42043:1,2014-02-04T00:30:00Z,28.9818,-94.9186,2.0,237.1134989,26.68647972,-99999.0,'11111222,11111222,99999999' 
TABS,ioos:station:wmo:42043:1,2014-02-04T01:00:00Z,28.9818,-94.9186,2.0,242.7613212,35.3949276,-99999.0,'11111222,11111222,99999999' 
TABS,ioos:station:wmo:42043:1,2014-02-04T01:30:00Z,28.9818,-94.9186,2.0,236.8353098,33.8547781,-99999.0,'11111222,11111222,99999999' 
TABS,ioos:station:wmo:42043:1,2014-02-04T02:00:00Z,28.9818,-94.9186,2.0,234.9408296,41.45070566,-99999.0,'11111222,11111222,99999999' 
TABS,ioos:station:wmo:42043:1,2014-02-04T02:30:00Z,28.9818,-94.9186,2.0,228.5323763,49.23039813,-99999.0,'11111222,11111222,99999999' 
TABS,ioos:station:wmo:42043:1,2014-02-04T03:00:00Z,28.9818,-94.9186,2.0,231.206231,42.1857713,-99999.0,'11111222,11111222,99999999' 
TABS,ioos:station:wmo:42043:1,2014-02-04T03:30:00Z,28.9818,-94.9186,2.0,224.754982,34.76875753,-99999.0,'11111222,11111222,99999999' 
TABS,ioos:station:wmo:42043:1,2014-02-04T04:00:00Z,28.9818,-94.9186,2.0,243.9140403,40.61736082,-99999.0,'11111222,11111222,99999999' 
TABS,ioos:station:wmo:42043:1,2014-02-04T04:30:00Z,28.9818,-94.9186,2.0,250.1138904,40.21809046,-99999.0,'11111222,11111222,99999999' 
TABS,ioos:station:wmo:42043:1,2014-02-04T05:00:00Z,28.9818,-94.9186,2.0,240.8431487,37.68497977,-99999.0,'11111222,11111222,99999999' 
TABS,ioos:station:wmo:42043:1,2014-02-04T05:30:00Z,28.9818,-94.9186,2.0,239.9378784,45.97417753,-99999.0,'11111222,11111222,99999999' 
TABS,ioos:station:wmo:42043:1,2014-02-04T06:00:00Z,28.9818,-94.9186,2.0,236.9213114,48.05919059,-99999.0,'11111222,11111222,99999999' 
TABS,ioos:station:wmo:42043:1,2014-02-04T06:30:00Z,28.9818,-94.9186,2.0,228.0758195,46.38232638,-99999.0,'11111222,11111222,99999999' 
TABS,ioos:station:wmo:42043:1,2014-02-04T07:00:00Z,28.9818,-94.9186,2.0,219.2651695,42.10679874,-99999.0,'11111222,11111222,99999999' 
TABS,ioos:station:wmo:42043:1,2014-02-04T07:30:00Z,28.9818,-94.9186,2.0,241.8421069,31.70179963,-99999.0,'11111222,11111222,99999999' 
TABS,ioos:station:wmo:42043:1,2014-02-04T08:00:00Z,28.9818,-94.9186,2.0,243.620258,30.36149041,-99999.0,'11111222,11111222,99999999' 
TABS,ioos:station:wmo:42043:1,2014-02-04T08:30:00Z,28.9818,-94.9186,2.0,251.305858,33.60270525,-99999.0,'11111222,11111222,99999999' 
TABS,ioos:station:wmo:42043:1,2014-02-04T09:00:00Z,28.9818,-94.9186,2.0,248.8838549,32.58815122,-99999.0,'11111222,11111222,99999999' 
TABS,ioos:station:wmo:42043:1,2014-02-04T09:30:00Z,28.9818,-94.9186,2.0,249.7894422,34.70684371,-99999.0,'11111222,11111222,99999999' 
TABS,ioos:station:wmo:42043:1,2014-02-04T10:00:00Z,28.9818,-94.9186,2.0,248.2420787,31.53664852,-99999.0,'11111222,11111222,99999999' 
TABS,ioos:station:wmo:42043:1,2014-02-04T10:30:00Z,28.9818,-94.9186,2.0,248.0016944,33.02425321,-99999.0,'11111222,11111222,99999999' 
TABS,ioos:station:wmo:42043:1,2014-02-04T11:00:00Z,28.9818,-94.9186,2.0,250.1993362,30.52464578,-99999.0,'11111222,11111222,99999999' 
TABS,ioos:station:wmo:42043:1,2014-02-04T11:30:00Z,28.9818,-94.9186,2.0,249.9238406,36.44438228,-99999.0,'11111222,11111222,99999999' 
TABS,ioos:station:wmo:42043:1,2014-02-04T12:00:00Z,28.9818,-94.9186,2.0,243.4834771,36.68941673,-99999.0,'11111222,11111222,99999999' 
TABS,ioos:station:wmo:42043:1,2014-02-04T12:30:00Z,28.9818,-94.9186,2.0,239.4140111,38.46111023,-99999.0,'11111222,11111222,99999999' 
TABS,ioos:station:wmo:42043:1,2014-02-04T13:00:00Z,28.9818,-94.9186,2.0,237.2074221,41.06395013,-99999.0,'11111222,11111222,99999999' 
TABS,ioos:station:wmo:42043:1,2014-02-04T13:30:00Z,28.9818,-94.9186,2.0,235.1320144,42.64603733,-99999.0,'11111222,11111222,99999999' 
TABS,ioos:station:wmo:42043:1,2014-02-04T14:00:00Z,28.9818,-94.9186,2.0,239.9320624,52.41294878,-99999.0,'11111222,11111222,99999999' 
TABS,ioos:station:wmo:42043:1,2014-02-04T14:30:00Z,28.9818,-94.9186,2.0,234.0804111,48.70070328,-99999.0,'11111222,11111222,99999999' 
TABS,ioos:station:wmo:42043:1,2014-02-04T15:00:00Z,28.9818,-94.9186,2.0,234.4377504,52.21960647,-99999.0,'11111222,11111222,99999999' 
TABS,ioos:station:wmo:42043:1,2014-02-04T15:30:00Z,28.9818,-94.9186,2.0,236.2603474,54.85986967,-99999.0,'11111222,11111222,99999999' 
TABS,ioos:station:wmo:42043:1,2014-02-04T16:00:00Z,28.9818,-94.9186,2.0,234.1202503,54.3781252,-99999.0,'11111222,11111222,99999999' 
TABS,ioos:station:wmo:42043:1,2014-02-04T16:30:00Z,28.9818,-94.9186,2.0,233.0855068,51.78001545,-99999.0,'11111222,11111222,99999999' 
TABS,ioos:station:wmo:42043:1,2014-02-04T17:00:00Z,28.9818,-94.9186,2.0,232.466335,52.50952009,-99999.0,'11111222,11111222,99999999' 
TABS,ioos:station:wmo:42043:1,2014-02-04T17:30:00Z,28.9818,-94.9186,2.0,232.1701475,47.52866609,-99999.0,'11111222,11111222,99999999' 
TABS,ioos:station:wmo:42043:1,2014-02-04T18:00:00Z,28.9818,-94.9186,2.0,227.5177265,53.11257667,-99999.0,'11111222,11111222,99999999' 
TABS,ioos:station:wmo:42043:1,2014-02-04T18:30:00Z,28.9818,-94.9186,2.0,231.2249253,63.83927709,-99999.0,'11111222,11111222,99999999' 
TABS,ioos:station:wmo:42043:1,2014-02-04T19:00:00Z,28.9818,-94.9186,2.0,230.7439058,62.3120165,-99999.0,'11111222,11111222,99999999' 
TABS,ioos:station:wmo:42043:1,2014-02-04T19:30:00Z,28.9818,-94.9186,2.0,227.6135402,58.60942074,-99999.0,'11111222,11111222,99999999' 
TABS,ioos:station:wmo:42043:1,2014-02-04T20:00:00Z,28.9818,-94.9186,2.0,231.8732929,57.36979432,-99999.0,'11111222,11111222,99999999' 
TABS,ioos:station:wmo:42043:1,2014-02-04T20:30:00Z,28.9818,-94.9186,2.0,233.8976574,57.00711973,-99999.0,'11111222,11111222,99999999' 
TABS,ioos:station:wmo:42043:1,2014-02-04T21:00:00Z,28.9818,-94.9186,2.0,233.047951,57.42405855,-99999.0,'11111222,11111222,99999999' 
TABS,ioos:station:wmo:42043:1,2014-02-04T21:30:00Z,28.9818,-94.9186,2.0,237.2631812,55.16148022,-99999.0,'11111222,11111222,99999999' 
TABS,ioos:station:wmo:42043:1,2014-02-04T22:00:00Z,28.9818,-94.9186,2.0,236.1966494,50.65254683,-99999.0,'11111222,11111222,99999999' 
TABS,ioos:station:wmo:42043:1,2014-02-04T22:30:00Z,28.9818,-94.9186,2.0,234.5815113,47.36520347,-99999.0,'11111222,11111222,99999999' 
TABS,ioos:station:wmo:42043:1,2014-02-04T23:00:00Z,28.9818,-94.9186,2.0,235.7947224,47.53140541,-99999.0,'11111222,11111222,99999999' 
TABS,ioos:station:wmo:42043:1,2014-02-04T23:30:00Z,28.9818,-94.9186,2.0,237.0364934,47.87725347,-99999.0,'11111222,11111222,99999999' 